Denver, CO

3:48 PM MDT on October 17, 2017 (GMT -0600)
Front Range

Weather History for KFTG - July, 2013

Change the Weather History Date:

Thursday, July 11, 2013

  Actual Average (KBKF) Record (KBKF)
Temperature  
Mean Temperature 81 °F -  
Max Temperature 98 °F 86 °F 96 °F (2013)
Min Temperature 64 °F 59 °F 55 °F (2010)
Cooling Degree Days 16    
Growing Degree Days 31 (Base 50)    
Moisture  
Dew Point 54 °F    
Average Humidity 50    
Maximum Humidity 73    
Minimum Humidity 13    
Precipitation  
Precipitation 0.00 in - - ()
Sea Level Pressure  
Sea Level Pressure 30.11 in    
Wind  
Wind Speed 15 mph (South)    
Max Wind Speed 20 mph    
Max Gust Speed 29 mph    
Visibility 10 miles    
Events Rain , Thunderstorm    
Averages and records for this station are not official NWS values.
T = Trace of Precipitation, MM = Missing Value Source: NWS Daily Summary

Daily Weather History Graph

Daily Weather History Graph

Search for Another Location

Airport or City:

Trip Planner

Search our weather history database for the weather conditions in past years. The results will help you decide how hot, cold, wet, or windy it might be!

Date:

Astronomy

Jul. 11, 2013 Rise Set
Actual Time 5:39 AM MDT 8:27 PM MDT
Civil Twilight 5:07 AM MDT 8:59 PM MDT
Nautical Twilight 4:27 AM MDT 9:39 PM MDT
Astronomical Twilight 3:41 AM MDT 10:24 PM MDT
Moon 9:00 AM MDT (7/11) 10:09 PM MDT (7/11)
Length of Visible Light 15h 51m
Length of Day
14h 47m
Waxing Crescent, 11% of the Moon is Illuminated
Jul 11
Waxing Crescent
Jul 15
First Quarter
Jul 22
Full
Jul 29
Last Quarter
Aug 6
New

Hourly Weather History & Observations

Time (MDT) Temp. Heat Index Dew Point Humidity Pressure Visibility Wind Dir Wind Speed Gust Speed Precip Events Conditions
12:16 AM 71.6 °F - 53.6 °F 53% 30.19 in 10.0 mi South 17.3 mph 25.3 mph N/A   Clear
12:36 AM 69.8 °F - 55.4 °F 60% 30.19 in 10.0 mi SSE 17.3 mph 27.6 mph N/A   Clear
12:56 AM 69.8 °F - 55.4 °F 60% 30.19 in 10.0 mi South 17.3 mph 23.0 mph N/A   Clear
1:16 AM 69.8 °F - 55.4 °F 60% 30.18 in 10.0 mi South 15.0 mph - N/A   Clear
1:36 AM 69.8 °F - 53.6 °F 56% 30.18 in 10.0 mi South 15.0 mph 23.0 mph N/A   Clear
1:56 AM 69.8 °F - 53.6 °F 56% 30.18 in 10.0 mi South 16.1 mph 23.0 mph N/A   Clear
2:16 AM 69.8 °F - 53.6 °F 56% 30.18 in 10.0 mi South 16.1 mph 23.0 mph N/A   Clear
2:36 AM 69.8 °F - 53.6 °F 56% 30.16 in 10.0 mi South 18.4 mph 28.8 mph N/A   Clear
2:56 AM 69.8 °F - 53.6 °F 56% 30.17 in 10.0 mi South 19.6 mph 28.8 mph N/A   Clear
3:16 AM 68.0 °F - 53.6 °F 60% 30.16 in 10.0 mi South 16.1 mph - N/A   Clear
3:36 AM 68.0 °F - 53.6 °F 60% 30.16 in 10.0 mi South 15.0 mph - N/A   Clear
3:56 AM 66.2 °F - 53.6 °F 64% 30.15 in 10.0 mi South 18.4 mph 23.0 mph N/A   Clear
4:16 AM 66.2 °F - 53.6 °F 64% 30.15 in 10.0 mi South 15.0 mph - N/A   Clear
4:35 AM 66.2 °F - 53.6 °F 64% 30.14 in 10.0 mi South 13.8 mph - N/A   Clear
4:56 AM 66.2 °F - 55.4 °F 68% 30.14 in 10.0 mi South 12.7 mph 25.3 mph N/A   Clear
5:16 AM 64.4 °F - 55.4 °F 73% 30.14 in 10.0 mi South 12.7 mph - N/A   Clear
5:36 AM 64.4 °F - 55.4 °F 73% 30.14 in 10.0 mi SSW 15.0 mph - N/A   Clear
5:56 AM 64.4 °F - 55.4 °F 73% 30.14 in 10.0 mi SSW 15.0 mph - N/A   Clear
6:16 AM 64.4 °F - 55.4 °F 73% 30.14 in 10.0 mi SSW 13.8 mph - N/A   Clear
6:36 AM 66.2 °F - 55.4 °F 68% 30.14 in 10.0 mi SSW 12.7 mph - N/A   Clear
6:45 AM 68.0 °F - 55.4 °F 64% 30.14 in 10.0 mi SSW 12.7 mph - N/A   Clear
7:48 AM 75.2 °F - 55.4 °F 50% 30.14 in 30.0 mi WSW 11.5 mph - N/A   Partly Cloudy
8:50 AM 78.8 °F - 53.6 °F 42% 30.14 in 30.0 mi Calm Calm - N/A   Partly Cloudy
9:50 AM 84.2 °F 82.8 °F 53.6 °F 35% 30.12 in 30.0 mi Calm Calm - N/A   Partly Cloudy
10:47 AM 89.6 °F - 50.0 °F 26% 30.10 in 30.0 mi East 8.1 mph - N/A   Partly Cloudy
11:50 AM 93.2 °F - 50.0 °F 23% 30.08 in 30.0 mi ESE 15.0 mph 24.2 mph N/A   Partly Cloudy
12:48 PM 95.0 °F - 46.4 °F 19% 30.06 in 30.0 mi ESE 12.7 mph 24.2 mph N/A   Partly Cloudy
1:55 PM 98.6 °F - 41.0 °F 14% 30.03 in 30.0 mi ESE 15.0 mph 23.0 mph N/A   Scattered Clouds
2:47 PM 98.6 °F - 39.2 °F 13% 30.02 in 30.0 mi SE 17.3 mph 24.2 mph N/A   Scattered Clouds
8:56 PM 84.2 °F 83.0 °F 55.4 °F 37% 30.01 in 10.0 mi South 15.0 mph 21.9 mph N/A   Clear
9:16 PM 84.2 °F 83.8 °F 59.0 °F 42% 30.01 in 10.0 mi South 16.1 mph 21.9 mph N/A   Clear
9:36 PM 82.4 °F 82.5 °F 59.0 °F 45% 30.02 in 10.0 mi South 17.3 mph 21.9 mph N/A Rain Light Rain
9:56 PM 82.4 °F 82.5 °F 59.0 °F 45% 30.03 in 10.0 mi South 15.0 mph - N/A   Clear
10:16 PM 82.4 °F 82.5 °F 59.0 °F 45% 30.05 in 10.0 mi SSW 17.3 mph 21.9 mph N/A   Clear
10:36 PM 80.6 °F 80.3 °F 53.6 °F 39% 30.05 in 10.0 mi SW 11.5 mph - N/A Thunderstorm Unknown
10:56 PM 78.8 °F - 51.8 °F 39% 30.06 in 10.0 mi West 8.1 mph - N/A   Scattered Clouds
11:15 PM 78.8 °F - 51.8 °F 39% 30.06 in 10.0 mi West 3.5 mph - N/A   Mostly Cloudy
11:36 PM 78.8 °F - 53.6 °F 42% 30.05 in 10.0 mi SW 10.4 mph - N/A Thunderstorm Clear
11:56 PM 73.4 °F - 55.4 °F 53% 30.05 in 10.0 mi WSW 15.0 mph 19.6 mph N/A   Clear